Radiation Dose at Monitoring Post of Fukushima Daini Nuclear Power Station
Date,Time,MP-1(microSv/h),MP-2(microSv/h),MP-3(microSv/h),MP-4(microSv/h),MP-5(microSv/h),MP-6(microSv/h),MP-7(microSv/h),Wind Direction,Wind Velocity(m/s),Rain
2014/11/15,00:00,0.622,0.394,0.655,0.590,0.587,0.274,0.240,south-southwest,4.5,No
2014/11/15,00:10,0.624,0.395,0.654,0.591,0.586,0.274,0.239,south-southwest,3.2,No
2014/11/15,00:20,0.622,0.395,0.653,0.591,0.586,0.273,0.240,south-southwest,3.9,No
2014/11/15,00:30,0.622,0.395,0.653,0.591,0.586,0.273,0.240,southwest,2.1,No
2014/11/15,00:40,0.622,0.394,0.654,0.590,0.586,0.273,0.239,south-southwest,2.5,No
2014/11/15,00:50,0.622,0.393,0.654,0.590,0.588,0.274,0.239,west-southwest,0.8,No
2014/11/15,01:00,0.622,0.394,0.655,0.590,0.586,0.272,0.240,west-northwest,4.3,No
2014/11/15,01:10,0.623,0.394,0.654,0.592,0.587,0.274,0.241,west,6.4,No
2014/11/15,01:20,0.621,0.394,0.653,0.590,0.587,0.273,0.239,west-northwest,7.5,No
2014/11/15,01:30,0.619,0.396,0.655,0.590,0.585,0.272,0.240,west,8.6,No
2014/11/15,01:40,0.623,0.393,0.651,0.591,0.587,0.273,0.238,west-northwest,7.4,No
2014/11/15,01:50,0.620,0.395,0.655,0.591,0.588,0.272,0.241,west-northwest,5.0,No
2014/11/15,02:00,0.624,0.396,0.656,0.591,0.586,0.273,0.239,west,4.7,No
2014/11/15,02:10,0.621,0.395,0.654,0.592,0.587,0.272,0.240,west,3.5,No
2014/11/15,02:20,0.622,0.394,0.655,0.589,0.587,0.272,0.239,northwest,2.6,No
2014/11/15,02:30,0.621,0.395,0.655,0.591,0.588,0.273,0.241,west,4.2,No
2014/11/15,02:40,0.623,0.394,0.654,0.590,0.586,0.272,0.238,west,3.1,No
2014/11/15,02:50,0.623,0.395,0.654,0.591,0.587,0.272,0.240,north,1.6,No
2014/11/15,03:00,0.620,0.396,0.656,0.592,0.586,0.272,0.240,north-northeast,0.8,No
2014/11/15,03:10,0.622,0.395,0.656,0.591,0.586,0.272,0.239,east-northeast,0.5,No
2014/11/15,03:20,0.622,0.396,0.654,0.592,0.587,0.273,0.240,west,1.4,No
2014/11/15,03:30,0.623,0.394,0.654,0.592,0.587,0.272,0.239,west,8.2,No
2014/11/15,03:40,0.623,0.394,0.654,0.591,0.587,0.272,0.239,west,10.3,No
2014/11/15,03:50,0.622,0.395,0.655,0.592,0.588,0.272,0.239,west-northwest,10.7,No
2014/11/15,04:00,0.621,0.396,0.654,0.591,0.586,0.273,0.240,west,10.7,No
2014/11/15,04:10,0.624,0.395,0.654,0.592,0.588,0.273,0.240,west,9.7,No
2014/11/15,04:20,0.622,0.395,0.657,0.593,0.587,0.273,0.240,west,8.0,No
2014/11/15,04:30,0.622,0.396,0.654,0.594,0.587,0.273,0.239,west,7.7,No
2014/11/15,04:40,0.623,0.396,0.656,0.592,0.587,0.273,0.241,west-northwest,6.3,No
2014/11/15,04:50,0.622,0.395,0.657,0.593,0.588,0.272,0.239,west-northwest,6.8,No
2014/11/15,05:00,0.623,0.397,0.656,0.591,0.585,0.272,0.240,west-northwest,7.5,No
2014/11/15,05:10,0.622,0.396,0.654,0.592,0.587,0.273,0.241,west-northwest,6.8,No
2014/11/15,05:20,0.624,0.396,0.655,0.592,0.587,0.274,0.239,west-northwest,5.3,No
2014/11/15,05:30,0.623,0.395,0.656,0.593,0.588,0.272,0.239,northwest,2.9,No
2014/11/15,05:40,0.624,0.395,0.655,0.593,0.588,0.273,0.239,north-northwest,2.6,No
2014/11/15,05:50,0.622,0.396,0.654,0.591,0.587,0.272,0.240,northwest,2.1,No
2014/11/15,06:00,0.624,0.397,0.655,0.591,0.587,0.272,0.238,northwest,2.1,No
2014/11/15,06:10,0.622,0.395,0.655,0.591,0.588,0.273,0.239,northwest,2.0,No
2014/11/15,06:20,0.622,0.394,0.656,0.592,0.588,0.272,0.239,west-northwest,3.8,No
2014/11/15,06:30,0.624,0.397,0.658,0.593,0.587,0.273,0.240,west,6.9,No
2014/11/15,06:40,0.622,0.396,0.657,0.590,0.587,0.273,0.240,west,5.9,No
2014/11/15,06:50,0.625,0.395,0.655,0.590,0.587,0.273,0.239,west,6.4,No
2014/11/15,07:00,0.622,0.396,0.655,0.593,0.588,0.273,0.239,west,7.5,No
2014/11/15,07:10,0.624,0.397,0.657,0.592,0.586,0.272,0.240,west,5.3,No
2014/11/15,07:20,0.623,0.396,0.655,0.592,0.590,0.273,0.238,west-southwest,5.8,No
2014/11/15,07:30,0.623,0.396,0.655,0.593,0.587,0.272,0.239,west-northwest,1.5,No
2014/11/15,07:40,0.622,0.396,0.654,0.593,0.588,0.271,0.239,west-northwest,1.4,No
2014/11/15,07:50,0.622,0.396,0.654,0.592,0.588,0.273,0.238,west-northwest,1.3,No
2014/11/15,08:00,0.623,0.395,0.656,0.592,0.587,0.273,0.239,west,2.0,No
2014/11/15,08:10,0.622,0.394,0.654,0.593,0.587,0.272,0.238,west-southwest,1.5,No
2014/11/15,08:20,0.625,0.394,0.656,0.595,0.589,0.272,0.239,west-southwest,3.1,No
2014/11/15,08:30,0.623,0.395,0.656,0.593,0.587,0.273,0.239,southwest,1.4,No
2014/11/15,08:40,0.622,0.394,0.657,0.595,0.587,0.272,0.239,west-northwest,3.6,No
2014/11/15,08:50,0.624,0.396,0.655,0.594,0.588,0.274,0.238,west,4.4,No
2014/11/15,09:00,0.624,0.395,0.656,0.594,0.589,0.271,0.239,west-northwest,4.1,No
2014/11/15,09:10,0.624,0.395,0.657,0.595,0.588,0.272,0.239,west-northwest,4.6,No
2014/11/15,09:20,0.624,0.395,0.658,0.596,0.587,0.274,0.240,west-northwest,3.6,No
2014/11/15,09:30,0.624,0.395,0.656,0.597,0.588,0.274,0.239,northwest,2.5,No
2014/11/15,09:40,0.625,0.394,0.657,0.596,0.588,0.272,0.240,west,2.6,No
2014/11/15,09:50,0.623,0.396,0.656,0.596,0.588,0.274,0.239,west-northwest,2.7,No
2014/11/15,10:00,0.626,0.395,0.660,0.597,0.588,0.274,0.239,north,1.1,No
2014/11/15,10:10,0.624,0.397,0.657,0.596,0.590,0.274,0.239,northwest,0.9,No
2014/11/15,10:20,0.625,0.396,0.657,0.594,0.588,0.273,0.239,northwest,2.1,No
2014/11/15,10:30,0.624,0.395,0.656,0.597,0.588,0.272,0.240,north-northwest,1.8,No
2014/11/15,10:40,0.625,0.396,0.659,0.595,0.589,0.274,0.239,-,CALM,No
2014/11/15,10:50,0.624,0.395,0.656,0.594,0.590,0.273,0.240,northeast,1.1,No
2014/11/15,11:00,0.624,0.395,0.656,0.595,0.589,0.273,0.239,west-northwest,1.9,No
2014/11/15,11:10,0.624,0.395,0.657,0.595,0.588,0.272,0.239,northwest,2.2,No
2014/11/15,11:20,0.626,0.396,0.656,0.596,0.588,0.273,0.240,west-northwest,3.7,No
2014/11/15,11:30,0.625,0.397,0.657,0.594,0.588,0.272,0.240,west-northwest,4.7,No
2014/11/15,11:40,0.625,0.397,0.657,0.596,0.590,0.273,0.241,west,4.2,Yes
2014/11/15,11:50,0.625,0.397,0.656,0.596,0.589,0.272,0.240,west-northwest,5.0,No
2014/11/15,12:00,0.624,0.397,0.658,0.595,0.588,0.273,0.241,west,4.7,No
2014/11/15,12:10,0.626,0.396,0.658,0.596,0.589,0.272,0.239,west-southwest,6.7,No
2014/11/15,12:20,0.624,0.397,0.658,0.596,0.591,0.273,0.241,west-southwest,4.9,No
2014/11/15,12:30,0.625,0.396,0.657,0.598,0.590,0.273,0.239,west-northwest,3.7,No
2014/11/15,12:40,0.625,0.395,0.658,0.595,0.589,0.273,0.240,west-northwest,4.6,No
2014/11/15,12:50,0.625,0.396,0.659,0.599,0.590,0.273,0.239,northwest,6.5,No
2014/11/15,13:00,0.623,0.397,0.659,0.598,0.590,0.274,0.240,northwest,6.3,No
2014/11/15,13:10,0.624,0.396,0.659,0.597,0.589,0.274,0.240,west-northwest,5.2,No
2014/11/15,13:20,0.626,0.396,0.660,0.598,0.589,0.272,0.240,west-northwest,6.0,No
2014/11/15,13:30,0.624,0.396,0.659,0.598,0.588,0.274,0.241,west,9.0,No
2014/11/15,13:40,0.625,0.394,0.661,0.599,0.586,0.273,0.240,west,6.3,No
2014/11/15,13:50,0.625,0.398,0.658,0.600,0.587,0.274,0.239,west,5.8,No
2014/11/15,14:00,0.624,0.396,0.658,0.600,0.587,0.272,0.241,west-northwest,7.0,No
2014/11/15,14:10,0.623,0.396,0.658,0.600,0.587,0.273,0.240,west-northwest,10.3,No
2014/11/15,14:20,0.624,0.396,0.657,0.598,0.587,0.273,0.240,west,8.5,No
2014/11/15,14:30,0.625,0.396,0.656,0.599,0.588,0.273,0.240,west-northwest,6.6,No
2014/11/15,14:40,0.624,0.396,0.655,0.597,0.590,0.273,0.241,west-northwest,2.3,No
2014/11/15,14:50,0.624,0.395,0.656,0.597,0.590,0.273,0.240,northwest,4.0,No
2014/11/15,15:00,0.626,0.397,0.657,0.594,0.589,0.273,0.241,north-northwest,3.1,No
2014/11/15,15:10,0.625,0.394,0.656,0.595,0.587,0.273,0.240,west-northwest,2.0,No
2014/11/15,15:20,0.624,0.396,0.656,0.592,0.588,0.273,0.241,west,1.4,No
2014/11/15,15:30,0.624,0.394,0.656,0.593,0.587,0.273,0.240,north-northwest,2.8,No
2014/11/15,15:40,0.623,0.394,0.655,0.594,0.589,0.273,0.240,west-southwest,2.8,No
2014/11/15,15:50,0.622,0.396,0.656,0.593,0.588,0.273,0.240,west-northwest,1.1,No
2014/11/15,16:00,0.622,0.396,0.656,0.591,0.589,0.273,0.240,-,CALM,No
2014/11/15,16:10,0.624,0.396,0.657,0.591,0.589,0.274,0.241,west,1.4,No
2014/11/15,16:20,0.624,0.397,0.655,0.591,0.587,0.274,0.241,southwest,1.9,No
2014/11/15,16:30,0.623,0.396,0.655,0.593,0.588,0.274,0.241,east,0.9,No
2014/11/15,16:40,0.624,0.397,0.654,0.592,0.589,0.273,0.240,north-northwest,0.5,No
2014/11/15,16:50,0.624,0.397,0.654,0.592,0.587,0.274,0.241,-,CALM,No
2014/11/15,17:00,0.623,0.396,0.656,0.592,0.588,0.275,0.242,north-northwest,1.5,No
2014/11/15,17:10,0.625,0.396,0.654,0.591,0.588,0.273,0.241,north-northwest,2.4,No
2014/11/15,17:20,0.622,0.397,0.657,0.593,0.587,0.274,0.241,north-northwest,2.0,No
2014/11/15,17:30,0.622,0.396,0.655,0.592,0.588,0.273,0.241,west,1.2,No
2014/11/15,17:40,0.624,0.396,0.655,0.592,0.587,0.274,0.241,north-northeast,2.4,No
2014/11/15,17:50,0.622,0.396,0.654,0.593,0.586,0.274,0.241,north,2.1,No
2014/11/15,18:00,0.622,0.396,0.655,0.591,0.586,0.273,0.242,north,2.1,No
2014/11/15,18:10,0.624,0.396,0.653,0.593,0.588,0.273,0.240,northwest,2.5,No
2014/11/15,18:20,0.623,0.396,0.655,0.592,0.587,0.274,0.242,north,2.0,No
2014/11/15,18:30,0.622,0.395,0.655,0.594,0.587,0.274,0.241,north,3.6,No
2014/11/15,18:40,0.624,0.395,0.656,0.594,0.587,0.273,0.239,north,4.7,No
2014/11/15,18:50,0.623,0.396,0.654,0.592,0.588,0.273,0.241,north-northwest,5.7,No
2014/11/15,19:00,0.625,0.396,0.655,0.592,0.586,0.274,0.240,north-northwest,2.9,No
2014/11/15,19:10,0.623,0.397,0.656,0.593,0.587,0.273,0.240,north,2.8,No
2014/11/15,19:20,0.624,0.397,0.656,0.592,0.589,0.273,0.243,north,4.5,No
2014/11/15,19:30,0.623,0.394,0.655,0.593,0.587,0.273,0.240,north,3.6,No
2014/11/15,19:40,0.624,0.396,0.656,0.592,0.586,0.273,0.241,north,3.9,No
2014/11/15,19:50,0.624,0.396,0.656,0.591,0.587,0.273,0.241,northwest,2.6,No
2014/11/15,20:00,0.623,0.395,0.655,0.591,0.586,0.273,0.241,north,3.9,No
2014/11/15,20:10,0.623,0.396,0.656,0.592,0.586,0.274,0.239,north,3.7,No
2014/11/15,20:20,0.623,0.395,0.654,0.593,0.587,0.274,0.241,north,2.5,No
2014/11/15,20:30,0.622,0.395,0.657,0.593,0.587,0.273,0.242,north-northwest,3.9,No
2014/11/15,20:40,0.623,0.396,0.656,0.592,0.588,0.272,0.242,north,3.4,No
2014/11/15,20:50,0.623,0.396,0.657,0.593,0.588,0.274,0.240,north-northwest,4.5,No
2014/11/15,21:00,0.624,0.396,0.655,0.592,0.587,0.273,0.241,north-northwest,4.5,No
2014/11/15,21:10,0.623,0.396,0.657,0.594,0.587,0.275,0.241,north-northwest,4.6,No
2014/11/15,21:20,0.624,0.395,0.656,0.593,0.586,0.274,0.241,north-northwest,4.7,No
2014/11/15,21:30,0.623,0.395,0.656,0.592,0.588,0.273,0.241,north-northwest,2.9,No
2014/11/15,21:40,0.624,0.395,0.656,0.593,0.587,0.274,0.240,north-northwest,4.1,No
2014/11/15,21:50,0.624,0.396,0.656,0.592,0.586,0.273,0.240,north-northwest,3.9,No
2014/11/15,22:00,0.624,0.396,0.656,0.593,0.588,0.273,0.240,northwest,2.8,No
2014/11/15,22:10,0.624,0.396,0.656,0.592,0.587,0.274,0.240,northwest,3.1,No
2014/11/15,22:20,0.623,0.394,0.654,0.592,0.588,0.273,0.240,north-northwest,3.1,No
2014/11/15,22:30,0.623,0.396,0.657,0.592,0.587,0.274,0.241,northwest,2.7,No
2014/11/15,22:40,0.622,0.396,0.656,0.591,0.588,0.275,0.239,north-northwest,2.2,No
2014/11/15,22:50,0.627,0.395,0.656,0.593,0.587,0.273,0.241,northwest,1.9,No
2014/11/15,23:00,0.625,0.396,0.655,0.593,0.587,0.272,0.240,west-northwest,1.0,No
2014/11/15,23:10,0.625,0.395,0.655,0.591,0.589,0.274,0.242,west-northwest,2.6,No
2014/11/15,23:20,0.625,0.396,0.656,0.594,0.586,0.273,0.240,northwest,3.9,No
2014/11/15,23:30,0.624,0.395,0.656,0.593,0.586,0.274,0.241,northwest,3.7,No
2014/11/15,23:40,0.624,0.396,0.656,0.591,0.587,0.274,0.239,north-northwest,4.2,No
2014/11/15,23:50,0.624,0.396,0.656,0.593,0.588,0.273,0.240,north-northwest,5.1,No
